FENGYUN 1C DEB, 33619

Orbit data source: Space-Track

FENGYUN 1C DEB, 33619 is space debris in SSO originally from a launch on Mon, 10 May 1999 UTC launched from the Taiyaun Space Center, China (TSC). Fengyun 1C debris stems from the Chinese weather satellite Fengyun-1C, which was intentionally destroyed by a Chinese anti-satellite missile in 2007. This event dramatically increased the amount of space debris, with thousands of trackable fragments posing hazards to satellites and human spaceflight. The Fengyun 1C debris cloud has become a focal point in discussions about space sustainability and the need for international regulations to prevent the creation of new debris.

Loading next visibility...
Identifier
33619, 1999-025DDC
Orbit
SSO
Country
Flag of CNCN / PRC
Related business
Manufacturer
Unknown
Mission
Spacecraft
Bus & Motor
Unknown
Mass
Unknown
Launch date (UTC)
1999-05-10 (26 years ago)
Launch vehicle
Unknown
Launch site
Taiyaun Space Center, China (TSC)
Object type
Payload
Rocket body
Debris
Shape & HBR
Unknown shape, 0.1 m
Radar Cross Section
Small (<0.1 m²)

Expand to show TLE details & history
Last TLE update: 11 hours ago

TLE from 11 hours ago
0 FENGYUN 1C DEB
1 33619U 99025DDC 25297.66685774  .00003876  00000-0  19198-2 0  9995
2 33619  98.8649   7.2120 0053294 183.8536 176.2235 14.17095945629296
Epoch: 2025-10-24T16:00Z
TLE epoch observation values (Epoch: 2025-10-24T16:00:16.508Z)
Latitude
-0.00005°
Longitude
93.83475°
Altitude
876.464 km
Speed
7.394 km/s
True Right ascension
00h 28m 50s
True Declination
0° 00' 00"
Sunlit
Object was in full shadow at epoch
Visualization orbit readout
Latitude
Unknown
Longitude
Unknown
Altitude
Unknown
Speed
Unknown
Apparent Right ascension
Unknown
Apparent Declination
Unknown
Sunlit
N/A
Visualization observer readout
Local Sidereal Time
21:54:55
Azimuth
Unknown
Elevation
Unknown
Doppler factor
Unknown
Orbital elements
Apogee altitude
870.788 km
Perigee altitude
793.933 km
Semi-major axis
7,210.498 km
Eccentricity
0.00533
Inclination
98.8649°
RAAN
7.212°
Arg. of periapsis
183.8536°
True anomaly
176.26346°
Mean anomaly
176.2235°
Eccentric anomaly
176.24351°
Mean motion
3.54483 °/min
Orbital period
101.56 mins
BSTAR
0.0019198
Loading maneuver chart data...
Computing Atmospheric mass density...

Documentation

Showing up to 5 results
|